ROMMA est une association bénévole à but non lucratif. Votre soutien est indispensable : ADHERER à ROMMA ou FAIRE un DON

Briord - (01, Ain)

Bugey (281 m)   Longitude: 05° 29' 13" E   Latitude: 45° 46' 37" N Station partenaire n°15
 

Détail journalier du     <<     >>

Température Precipitation Humidité Pression Vent Dir Rafale Dir. rafale Ensol.
Heure (°C) (mm) (%) (hPa) (km/h) (km/h) (min)
01:00 3.6093102200---0
02:00 3.8092102203O0
03:00 3.8092102200---0
04:00 3.7092102202NNO0
05:00 4.0092102102SE0
06:00 3.7093102200---0
07:00 3.2093102200---0
08:00 3.2093102300---0
09:00 2.1093102300---0
10:00 5.1092102302O45
11:00 6.8089102400---5
12:00 8.5086102300---15
13:00 9.9080102300---20
14:00 12.4072102200---50
15:00 12.2070102200---50
16:00 10.3080102200---0
17:00 7.3086102200---5
18:00 6.9090102300---0
19:00 7.2090102300---0
20:00 7.2091102303ESE0
21:00 7.1091102302ESE0
22:00 6.7091102300---0
23:00 4.1092102300---0
minuit 3.2093102300---0

Graphique du 07-12-2019

 

Serveur OMMA